SL-14 R/B (19574 NORAD) Tracking and Keplerian Element Data

This shows tracking and keplerian element data for the satellite.

Feedback or suggestion? Click here.




ElementValue
Catalog19574
NameSL-14 R/B
Epoch Orbit88423
Epoch Day12.65568421
Epoch Year2024
RAAN60.025
Inclination82.5303
Eccentricity0.0022661
Argument of Perigee118.2376
Mean Anonmoly0.4557
Mean Motion14.84190577
Decay Rate7.32E-06
L11 19574U 88093B 24012.65568421 .00000732 00000+0 84246-4 0 9999
L22 19574 82.5303 60.0250 0022661 118.2376 0.4557 14.84190577884239



Live tracking and technical data element details for SL-14 R/B (NORAD 19574). SL-14 R/B can be tracked NOW for your location showing map with azimuth and elevation plus other details from your city location.







IsCatalogInMostPopularTable: catalog: 19574, numindb: 331
Update: records affected: 1



GetName: 19574 SL-14 R/B

Hit Count: updated at: Fri, 19 Apr 2024 12:01:21 GMT